{"data":{"norad_id":59934,"epoch":"2026-09-21T10:16:17.659488Z","epoch_age_seconds":94295,"freshness":"FRESH","line1":"1 59934U 24106N   26264.42798217 -.00000017  00000+0  88907-5 0  9998","line2":"2 59934  43.0037 303.8987 0000982 274.7873  85.2867 15.27575782130373","mean_motion":15.27575782,"eccentricity":9.82e-5,"inclination_deg":43.0037,"raan_deg":303.8987,"arg_perigee_deg":274.7873,"mean_anomaly_deg":85.2867,"bstar":8.8907e-6,"rev_number":13037,"period_min":94.267009006562,"perigee_km":482.38795656321,"apogee_km":483.73549599305,"semimajor_km":6861.1987262781,"source":"CELESTRAK","updated_at":"2026-09-22T09:00:49.113146Z"}}